Weather History for Chester, CT

Change the Weather History Date:

Friday, February 8, 2013

  Actual Average (KHVN) Record (KHVN)
Temperature  
Mean Temperature 28 °F -  
Max Temperature 32 °F 37 °F 28 °F (2014)
Min Temperature 23 °F 24 °F 19 °F (2014)
Degree Days  
Heating Degree Days 37    
Moisture  
Dew Point 28 °F    
Average Humidity 91    
Maximum Humidity 100    
Minimum Humidity 55    
Precipitation  
Precipitation 27.47 in - - ()
Sea Level Pressure  
Sea Level Pressure 29.93 in    
Wind  
Wind Speed 10 mph (ENE)    
Max Wind Speed 21 mph    
Max Gust Speed 32 mph    
Visibility 3 miles    
Events Rain , Snow    
Averages and records for this station are not official NWS values.
T = Trace of Precipitation, MM = Missing Value Source: NWS Daily Summary

Daily Weather History Graph

Daily Weather History Graph

Search for Another Location

Airport:

Trip Planner

Search our weather history database for the weather conditions in past years. The results will help you decide how hot, cold, wet, or windy it might be!

Date:

Astronomy

Feb. 08, 2013 Rise Set
Actual Time 6:53 AM EST 5:15 PM EST
Civil Twilight 6:24 AM EST 5:44 PM EST
Nautical Twilight 5:52 AM EST 6:16 PM EST
Astronomical Twilight 5:19 AM EST 6:49 PM EST
Moon 5:20 AM EST (2/8) 3:45 PM EST (2/8)
Length of Visible Light 11h 19m
Length of Day
10h 21m
Waning Crescent, 3% of the Moon is Illuminated
Feb 8
Waning Crescent
Feb 10
New
Feb 17
First Quarter
Feb 25
Full
Mar 4
Last Quarter

Hourly Weather History & Observations

Time (EST) Temp. Windchill Dew Point Humidity Pressure Visibility Wind Dir Wind Speed Gust Speed Precip Events Conditions
12:15 AM 28.4 °F 20.4 °F 14.0 °F 55% 30.36 in 10.0 mi East 8.1 mph 16.1 mph N/A   Mostly Cloudy
12:55 AM 28.4 °F 21.2 °F 14.0 °F 55% 30.35 in 10.0 mi East 6.9 mph - N/A   Overcast
1:15 AM 28.4 °F 19.1 °F 15.8 °F 59% 30.34 in 10.0 mi East 10.4 mph - N/A   Overcast
1:35 AM 28.4 °F 19.7 °F 17.6 °F 64% 30.34 in 10.0 mi East 9.2 mph - N/A   Overcast
1:55 AM 28.4 °F 20.4 °F 19.4 °F 69% 30.34 in 10.0 mi East 8.1 mph - N/A   Overcast
2:15 AM 28.4 °F 19.1 °F 19.4 °F 69% 30.32 in 10.0 mi East 10.4 mph - N/A   Overcast
2:35 AM 28.4 °F 21.2 °F 19.4 °F 69% 30.31 in 10.0 mi ENE 6.9 mph - N/A   Overcast
2:55 AM 28.4 °F 21.2 °F 19.4 °F 69% 30.30 in 10.0 mi East 6.9 mph - N/A   Overcast
3:15 AM 28.4 °F 20.4 °F 19.4 °F 69% 30.28 in 10.0 mi ENE 8.1 mph - N/A   Overcast
3:35 AM 28.4 °F 19.7 °F 21.2 °F 74% 30.27 in 10.0 mi East 9.2 mph - N/A   Overcast
3:55 AM 28.4 °F 22.2 °F 21.2 °F 74% 30.26 in 10.0 mi East 5.8 mph - N/A   Overcast
4:15 AM 30.2 °F 22.6 °F 23.0 °F 75% 30.26 in 10.0 mi East 8.1 mph - N/A   Overcast
4:35 AM 30.2 °F 23.4 °F 23.0 °F 75% 30.25 in 10.0 mi ENE 6.9 mph - N/A   Overcast
4:55 AM 30.2 °F 22.6 °F 24.8 °F 80% 30.24 in 10.0 mi East 8.1 mph - N/A   Overcast
5:15 AM 30.2 °F 21.9 °F 26.6 °F 86% 30.23 in 10.0 mi ENE 9.2 mph - N/A   Overcast
5:35 AM 30.2 °F 23.4 °F 26.6 °F 86% 30.22 in 10.0 mi ENE 6.9 mph - N/A   Overcast
6:15 AM 32.0 °F 24.8 °F 26.6 °F 80% 30.21 in 10.0 mi ENE 8.1 mph - N/A   Overcast
6:35 AM 32.0 °F 24.2 °F 28.4 °F 87% 30.20 in 9.0 mi ENE 9.2 mph - N/A   Overcast
6:55 AM 32.0 °F 25.6 °F 28.4 °F 87% 30.19 in 3.0 mi East 6.9 mph - N/A Rain Light Rain
7:15 AM 32.0 °F 24.8 °F 28.4 °F 87% 30.19 in 1.0 mi East 8.1 mph - 0.16 in Snow Light Snow
7:35 AM 32.0 °F 24.8 °F 30.2 °F 93% 30.18 in 1.0 mi ENE 8.1 mph - 0.33 in Snow Light Snow
7:55 AM 32.0 °F 24.2 °F 30.2 °F 93% 30.17 in 1.0 mi East 9.2 mph - 0.44 in Snow Light Snow
8:15 AM 32.0 °F 24.8 °F 32.0 °F 100% 30.16 in 0.8 mi East 8.1 mph 17.3 mph 0.09 in Snow Light Snow
8:35 AM 32.0 °F 24.2 °F 32.0 °F 100% 30.15 in 0.8 mi East 9.2 mph 18.4 mph 0.26 in Snow Light Snow
8:55 AM 32.0 °F 24.8 °F 32.0 °F 100% 30.15 in 0.8 mi East 8.1 mph 17.3 mph 0.42 in Snow Light Snow
9:15 AM 32.0 °F 23.0 °F 32.0 °F 100% 30.13 in 0.8 mi East 11.5 mph 16.1 mph 0.13 in Snow Light Snow
9:35 AM 32.0 °F 24.2 °F 32.0 °F 100% 30.12 in 0.8 mi East 9.2 mph 19.6 mph 0.36 in Snow Light Snow
9:55 AM 32.0 °F 23.0 °F 32.0 °F 100% 30.09 in 0.5 mi ENE 11.5 mph 21.9 mph 0.72 in Snow Snow
10:15 AM 32.0 °F 21.2 °F 32.0 °F 100% 30.08 in 0.8 mi ENE 16.1 mph - 0.31 in Snow Light Snow
10:35 AM 32.0 °F 22.1 °F 32.0 °F 100% 30.06 in 0.8 mi ENE 13.8 mph 20.7 mph 0.62 in Snow Light Snow
10:55 AM 32.0 °F 23.0 °F 32.0 °F 100% 30.03 in 1.0 mi East 11.5 mph 17.3 mph 0.89 in Snow Light Snow
11:15 AM 32.0 °F 22.1 °F 32.0 °F 100% 30.01 in 0.8 mi East 13.8 mph 23.0 mph 0.21 in Snow Light Snow
11:35 AM 32.0 °F 23.6 °F 32.0 °F 100% 30.00 in 0.8 mi East 10.4 mph 20.7 mph 0.52 in Snow Light Snow
11:55 AM 32.0 °F 21.6 °F 32.0 °F 100% 29.98 in 0.8 mi ENE 15.0 mph 21.9 mph 0.86 in Snow Snow
12:15 PM 32.0 °F 23.0 °F 32.0 °F 100% 29.96 in 0.5 mi ENE 11.5 mph 21.9 mph 0.48 in Snow Snow
12:35 PM 32.0 °F 23.6 °F 32.0 °F 100% 29.94 in 0.5 mi East 10.4 mph 20.7 mph 1.12 in Snow Snow
12:55 PM 32.0 °F 22.1 °F 32.0 °F 100% 29.91 in 0.5 mi ENE 13.8 mph 21.9 mph 1.59 in Snow Snow
1:15 PM 32.0 °F 21.6 °F 32.0 °F 100% 29.89 in 0.5 mi ENE 15.0 mph 23.0 mph 0.40 in Snow Snow
1:35 PM 32.0 °F 22.5 °F 32.0 °F 100% 29.87 in 0.5 mi ENE 12.7 mph 21.9 mph 1.12 in Snow Snow
1:55 PM 32.0 °F 21.6 °F 32.0 °F 100% 29.85 in 0.5 mi ENE 15.0 mph 23.0 mph 1.81 in Snow Light Snow
2:15 PM 32.0 °F 21.2 °F 32.0 °F 100% 29.83 in 0.5 mi ENE 16.1 mph 25.3 mph 0.28 in Snow Snow
2:35 PM 32.0 °F 21.6 °F 32.0 °F 100% 29.80 in 0.2 mi ENE 15.0 mph 24.2 mph 1.04 in Snow Snow
2:55 PM 32.0 °F 21.6 °F 32.0 °F 100% 29.78 in 0.5 mi NE 15.0 mph 24.2 mph 1.57 in Snow Snow
3:15 PM 32.0 °F 20.5 °F 32.0 °F 100% 29.76 in 0.5 mi ENE 18.4 mph 32.2 mph 0.37 in Snow Snow
3:35 PM 32.0 °F 20.8 °F 32.0 °F 100% 29.74 in 0.2 mi ENE 17.3 mph 26.5 mph 1.08 in Snow Snow
3:55 PM 32.0 °F 20.8 °F 32.0 °F 100% 29.72 in 0.2 mi ENE 17.3 mph 27.6 mph 2.07 in Snow Heavy Snow
4:15 PM 32.0 °F 21.2 °F 32.0 °F 100% 29.72 in 0.2 mi ENE 16.1 mph 24.2 mph 1.71 in Snow Heavy Snow
4:35 PM 32.0 °F 24.8 °F 32.0 °F 100% 29.70 in - NE 8.1 mph 27.6 mph 8.37 in Snow Heavy Snow
4:55 PM 32.0 °F 20.8 °F 32.0 °F 100% 29.69 in - NE 17.3 mph 28.8 mph 2.12 in Snow Heavy Snow
5:15 PM 32.0 °F 22.5 °F 32.0 °F 100% 29.69 in - ENE 12.7 mph 23.0 mph 0.18 in   Overcast
5:35 PM 32.0 °F 23.6 °F 32.0 °F 100% 29.66 in - NE 10.4 mph 24.2 mph 2.36 in Snow Heavy Snow
5:55 PM 32.0 °F 23.6 °F 32.0 °F 100% 29.64 in 0.2 mi NE 10.4 mph 19.6 mph 1.08 in Snow Heavy Snow
6:15 PM 30.2 °F 19.8 °F 30.2 °F 100% 29.62 in 0.2 mi NE 13.8 mph 19.6 mph 0.42 in Snow Light Snow
6:35 PM 30.2 °F 21.3 °F 30.2 °F 100% 29.61 in 0.2 mi NE 10.4 mph 21.9 mph 0.45 in Snow Light Snow
6:55 PM 30.2 °F 19.3 °F 30.2 °F 100% 29.59 in 0.2 mi NE 15.0 mph 23.0 mph 0.52 in Snow Snow
7:15 PM 30.2 °F 18.9 °F 30.2 °F 100% 29.57 in 0.2 mi NNE 16.1 mph 25.3 mph 0.99 in Snow Snow
7:35 PM 30.2 °F 20.2 °F 28.4 °F 93% 29.56 in 0.2 mi NNE 12.7 mph 25.3 mph 1.90 in Snow Snow
7:55 PM 28.4 °F 15.4 °F 28.4 °F 100% 29.55 in 0.2 mi NNE 19.6 mph 31.1 mph 2.55 in Snow Snow
8:15 PM 28.4 °F 15.1 °F 28.4 °F 100% 29.53 in 0.2 mi NNE 20.7 mph 32.2 mph 0.42 in Snow Snow
8:35 PM 28.4 °F 16.2 °F 28.4 °F 100% 29.52 in 0.8 mi NNE 17.3 mph 28.8 mph 0.80 in Snow Light Snow
8:55 PM 30.2 °F 20.2 °F 26.6 °F 86% 29.53 in 1.2 mi NE 12.7 mph 25.3 mph 1.08 in Snow Light Snow
9:15 PM 28.4 °F 18.0 °F 26.6 °F 93% 29.53 in 1.5 mi NE 12.7 mph 25.3 mph 0.15 in Snow Light Snow
9:35 PM 28.4 °F 17.0 °F 26.6 °F 93% 29.53 in 0.5 mi ENE 15.0 mph 32.2 mph 0.44 in Snow Snow
9:55 PM 28.4 °F 19.7 °F 26.6 °F 93% 29.53 in 0.5 mi NE 9.2 mph 26.5 mph 1.06 in Snow Snow
10:15 PM 26.6 °F 16.8 °F 26.6 °F 100% 29.55 in 0.2 mi NE 10.4 mph 21.9 mph 0.54 in Snow Snow
10:35 PM 26.6 °F 14.7 °F 24.8 °F 93% 29.55 in 0.2 mi NNE 15.0 mph 26.5 mph 1.09 in Snow Light Snow
10:55 PM 26.6 °F 19.1 °F 24.8 °F 93% 29.56 in 0.2 mi NNE 6.9 mph 21.9 mph 1.14 in Snow Light Snow
11:15 PM 26.6 °F 15.2 °F 24.8 °F 93% 29.57 in 0.2 mi North 13.8 mph 25.3 mph 0.01 in Snow Light Snow
11:35 PM 24.8 °F 14.0 °F 23.0 °F 93% 29.58 in 0.2 mi North 11.5 mph 25.3 mph 0.02 in   Overcast
11:55 PM 23.0 °F 8.3 °F 21.2 °F 93% 29.60 in 0.2 mi North 19.6 mph 27.6 mph 0.02 in   Overcast